Regional Weather Roundup
Issued by NWS

Home | Current Version | Previous Version | Text Only | Print | Product List | Glossary Off
Versions: 1 2 3 4 5 6 7 8 9 10 11 12 13 14 15 16 17 18 19 20 21 22 23 24 25 26 27 28 29 30 31 32 33 34 35 36 37 38 39 40 41 42 43 44 45 46 47 48 49 50

000
ASUS44 KMEG 192010
RWRTN
TENNESSEE HOURLY STATE WEATHER ROUNDUP
NATIONAL WEATHER SERVICE MEMPHIS TN
300 PM CDT THU OCT 19 2017

TNZ002-004-019-021-049-052-054-088>092-192100-
WEST TENNESSEE

CITY           SKY/WX    TMP DP  RH WIND       PRES   REMARKS
MEMPHIS INTL   FAIR      76  50  40 CALM      30.20F
NWS MEMPHIS      N/A     77 N/A N/A MISG        N/A
JACKSON        FAIR      76  49  38 SE6       30.22F
SOMERVILLE     SUNNY     75  50  41 CALM      30.20F
COVINGTON      SUNNY     77  50  38 S7        30.20F
UNION CITY     SUNNY     77  48  36 VRB7      30.19F
BOLIVAR        SUNNY     75  52  43 VRB5      30.21F
PARIS          SUNNY     75  48  38 VRB6      30.21F
HUNTINGDON     SUNNY     75  50  41 VRB5      30.21F
LEXINGTON      SUNNY     73  46  38 CALM      30.22F
SELMER         SUNNY     75  48  38 VRB3      30.22F
SAVANNAH       SUNNY     75  46  35 CALM      30.22F
$$

TNZ008-025-027-028-033-062-065-066-192100-
NORTH MIDDLE TENNESSEE

CITY           SKY/WX    TMP DP  RH WIND       PRES   REMARKS
NASHVILLE      FAIR      76  45  33 CALM      30.25F
PORTLAND       SUNNY     72  50  46 VRB5      30.24F HAZE
CLARKSVILLE    FAIR      74  47  38 SE7       30.23F
SMYRNA         FAIR      74  45  35 S6        30.25F
COOKEVILLE     SUNNY     72  43  35 CALM      30.26F
GALLATIN       SUNNY     73  46  38 CALM      30.27F
CROSSVILLE     FAIR      69  41  36 CALM      30.29F
$$

TNZ061-075-076-078-094-096-097-192100-
SOUTH MIDDLE TENNESSEE

CITY           SKY/WX    TMP DP  RH WIND       PRES   REMARKS
FAYETTEVILLE   SUNNY     73  45  35 CALM      30.25S HAZE
TULLAHOMA      SUNNY     73  36  25 CALM      30.27S
WINCHESTER     SUNNY     73  43  33 NW3         N/A
COLUMBIA       SUNNY     75  43  31 CALM      30.22F
SHELBYVILLE    SUNNY     72  43  35 VRB3      30.25F
$$

TNZ017-018-042-046-047-192100-
NORTHEAST TENNESSEE

CITY           SKY/WX    TMP DP  RH WIND       PRES   REMARKS
TRI CITIES     FAIR      71  43  36 VRB3      30.27F
ELIZABETHTON   SUNNY     70  39  32 CALM      30.27F
$$

TNZ012-013-036-069-073-074-192100-
CENTRAL EAST TENNESSEE

CITY           SKY/WX    TMP DP  RH WIND       PRES   REMARKS
KNOXVILLE      FAIR      71  45  39 W3        30.26F
OAK RIDGE      FAIR      70  49  47 VRB5      30.28F
DOWNTOWN KNOXV SUNNY     73  43  33 CALM      30.27F
GATLINBURG     SUNNY     72  37  28 CALM      30.26F
MORRISTOWN     SUNNY     70  45  40 CALM      30.27F
JACKSBORO      SUNNY     70  48  46 CALM      30.30F
$$

TNZ083-085-099-192100-
SOUTHEAST TENNESSEE

CITY           SKY/WX    TMP DP  RH WIND       PRES   REMARKS
CHATTANOOGA    FAIR      74  43  32 VRB3      30.26F
DAYTON         CLEAR     70  48  46 S5        30.26F
$$

SKY/WX REPORTED AS FAIR MEANS FEW OR NO CLOUDS BELOW
12 THOUSAND FEET.





USA.gov is the U.S. government's official web portal to all federal, state and local government web resources and services.